�������l�o���
Date,Time,MP-1(��Sv/h),MP-2(��Sv/h),MP-3(��Sv/h),MP-4(��Sv/h),MP-5(��Sv/h),MP-6(��Sv/h),MP-7(��Sv/h),����,����(m/s),���J
2020/10/01,00:00,0.175,0.158,0.254,0.242,0.243,0.137,0.083,�k�k��,1.5,�L
2020/10/01,00:10,0.177,0.157,0.253,0.241,0.244,0.137,0.083,�k��,1.0,�L
2020/10/01,00:20,0.176,0.158,0.255,0.241,0.242,0.138,0.084,���k��,1.2,�L
2020/10/01,00:30,0.177,0.157,0.253,0.242,0.244,0.138,0.083,��,0.8,��
2020/10/01,00:40,0.175,0.158,0.254,0.242,0.242,0.139,0.084,-,CALM,�L
2020/10/01,00:50,0.176,0.158,0.251,0.240,0.243,0.138,0.083,�k��,1.2,�L
2020/10/01,01:00,0.175,0.158,0.254,0.243,0.242,0.138,0.083,���k��,1.0,��
2020/10/01,01:10,0.176,0.157,0.252,0.239,0.244,0.137,0.082,�k��,1.2,��
2020/10/01,01:20,0.174,0.157,0.253,0.241,0.240,0.138,0.084,���k��,0.8,��
2020/10/01,01:30,0.176,0.156,0.252,0.241,0.244,0.137,0.083,���k��,1.0,��
2020/10/01,01:40,0.175,0.156,0.253,0.241,0.241,0.138,0.082,���k��,0.8,��
2020/10/01,01:50,0.174,0.156,0.252,0.240,0.243,0.136,0.083,���k��,1.1,��
2020/10/01,02:00,0.176,0.157,0.253,0.240,0.242,0.137,0.082,���k��,1.9,��
2020/10/01,02:10,0.176,0.157,0.252,0.240,0.243,0.136,0.083,�k��,2.4,��
2020/10/01,02:20,0.176,0.156,0.254,0.241,0.242,0.137,0.082,���k��,2.7,��
2020/10/01,02:30,0.175,0.157,0.251,0.239,0.243,0.136,0.082,���k��,2.3,��
2020/10/01,02:40,0.175,0.157,0.254,0.241,0.242,0.137,0.083,���k��,2.0,��
2020/10/01,02:50,0.176,0.157,0.253,0.239,0.243,0.137,0.082,���k��,2.2,��
2020/10/01,03:00,0.175,0.156,0.254,0.240,0.242,0.137,0.082,���k��,1.2,��
2020/10/01,03:10,0.175,0.158,0.252,0.240,0.242,0.137,0.083,���k��,0.7,��
2020/10/01,03:20,0.175,0.156,0.254,0.240,0.242,0.137,0.082,�k��,0.6,��
2020/10/01,03:30,0.175,0.157,0.252,0.239,0.242,0.138,0.083,�k��,0.7,��
2020/10/01,03:40,0.176,0.156,0.253,0.242,0.241,0.136,0.083,�k��,0.7,��
2020/10/01,03:50,0.175,0.157,0.253,0.241,0.243,0.137,0.082,�k��,1.1,��
2020/10/01,04:00,0.176,0.156,0.252,0.241,0.242,0.137,0.082,�k��,1.1,��
2020/10/01,04:10,0.174,0.157,0.255,0.240,0.243,0.137,0.083,�k�k��,1.3,��
2020/10/01,04:20,0.175,0.157,0.252,0.241,0.242,0.137,0.082,�k��,1.6,��
2020/10/01,04:30,0.175,0.156,0.254,0.242,0.243,0.138,0.082,�k��,1.8,��
2020/10/01,04:40,0.176,0.157,0.253,0.241,0.242,0.137,0.083,�k�k��,2.0,��
2020/10/01,04:50,0.175,0.157,0.253,0.241,0.242,0.137,0.082,�k�k��,2.7,��
2020/10/01,05:00,0.175,0.157,0.252,0.241,0.242,0.136,0.082,�k��,2.8,��
2020/10/01,05:10,0.176,0.158,0.254,0.241,0.242,0.137,0.083,�k�k��,2.1,��
2020/10/01,05:20,0.175,0.157,0.253,0.240,0.242,0.137,0.083,�k�k��,4.5,��
2020/10/01,05:30,0.176,0.157,0.252,0.240,0.244,0.137,0.083,�k�k��,4.5,��
2020/10/01,05:40,0.175,0.156,0.253,0.240,0.242,0.137,0.082,�k��,3.0,��
2020/10/01,05:50,0.177,0.157,0.253,0.241,0.244,0.137,0.083,�k�k��,3.0,��
2020/10/01,06:00,0.175,0.157,0.254,0.240,0.241,0.137,0.082,�k�k��,3.0,��
2020/10/01,06:10,0.175,0.156,0.252,0.240,0.244,0.137,0.083,�k�k��,3.4,��
2020/10/01,06:20,0.176,0.157,0.255,0.242,0.241,0.137,0.083,�k,3.9,��
2020/10/01,06:30,0.176,0.157,0.251,0.241,0.244,0.136,0.083,�k,2.4,��
2020/10/01,06:40,0.175,0.156,0.254,0.240,0.242,0.137,0.083,�k,1.0,��
2020/10/01,06:50,0.176,0.157,0.252,0.240,0.244,0.136,0.082,�k�k��,2.5,��
2020/10/01,07:00,0.174,0.157,0.253,0.243,0.242,0.137,0.083,�k�k��,4.2,��
2020/10/01,07:10,0.177,0.157,0.251,0.239,0.243,0.137,0.083,�k�k��,4.4,��
2020/10/01,07:20,0.174,0.156,0.253,0.241,0.242,0.136,0.082,�k�k��,4.0,��
2020/10/01,07:30,0.176,0.156,0.252,0.239,0.242,0.137,0.083,�k�k��,3.1,��
2020/10/01,07:40,0.175,0.157,0.255,0.241,0.243,0.136,0.083,�k�k��,2.9,��
2020/10/01,07:50,0.176,0.156,0.251,0.240,0.240,0.137,0.082,�k�k��,2.5,��
2020/10/01,08:00,0.174,0.157,0.252,0.239,0.242,0.137,0.082,�k��,3.2,��
2020/10/01,08:10,0.175,0.157,0.252,0.241,0.242,0.138,0.082,�k��,2.5,��
2020/10/01,08:20,0.176,0.157,0.253,0.239,0.244,0.138,0.082,�k��,2.1,��
2020/10/01,08:30,0.174,0.157,0.252,0.242,0.242,0.136,0.083,�k�k��,1.7,��
2020/10/01,08:40,0.176,0.155,0.251,0.238,0.241,0.137,0.082,�k��,1.4,��
2020/10/01,08:50,0.174,0.157,0.253,0.240,0.244,0.135,0.082,�k��,1.4,��
2020/10/01,09:00,0.175,0.156,0.251,0.241,0.240,0.137,0.083,�k��,1.6,��
2020/10/01,09:10,0.176,0.156,0.254,0.239,0.243,0.137,0.082,�k��,1.4,��
2020/10/01,09:20,0.174,0.157,0.251,0.240,0.242,0.136,0.082,�k�k��,1.9,��
2020/10/01,09:30,0.175,0.155,0.251,0.237,0.241,0.137,0.083,�k��,1.9,��
2020/10/01,09:40,0.174,0.158,0.252,0.240,0.243,0.137,0.082,�k��,1.2,��
2020/10/01,09:50,0.175,0.156,0.250,0.240,0.242,0.136,0.083,�k��,1.1,��
2020/10/01,10:00,0.176,0.157,0.254,0.240,0.242,0.137,0.083,�k�k��,1.4,��
2020/10/01,10:10,0.175,0.157,0.251,0.241,0.243,0.136,0.082,�k�k��,1.5,��
2020/10/01,10:20,0.177,0.157,0.252,0.239,0.241,0.137,0.083,�k�k��,1.3,��
2020/10/01,10:30,0.176,0.158,0.253,0.241,0.242,0.137,0.082,�k,1.1,��
2020/10/01,10:40,0.176,0.156,0.251,0.240,0.244,0.136,0.082,�k�k��,1.1,��
2020/10/01,10:50,0.176,0.156,0.254,0.237,0.242,0.137,0.082,�k,1.7,��
2020/10/01,11:00,0.175,0.158,0.252,0.242,0.243,0.138,0.082,�k�k��,2.2,��
2020/10/01,11:10,0.176,0.156,0.252,0.240,0.243,0.135,0.083,�k,2.5,��
2020/10/01,11:20,0.175,0.158,0.253,0.239,0.240,0.136,0.083,�k,2.3,��
2020/10/01,11:30,0.176,0.156,0.251,0.242,0.244,0.137,0.083,�k�k��,2.8,��
2020/10/01,11:40,0.176,0.159,0.253,0.240,0.243,0.136,0.082,�k,2.7,��
2020/10/01,11:50,0.175,0.157,0.252,0.242,0.240,0.138,0.082,�k�k��,2.4,��
2020/10/01,12:00,0.176,0.156,0.251,0.241,0.244,0.137,0.082,�k��,2.3,��
2020/10/01,12:10,0.175,0.157,0.252,0.238,0.242,0.136,0.083,�k��,2.8,��
2020/10/01,12:20,0.174,0.156,0.251,0.241,0.242,0.137,0.082,�k��,2.1,��
2020/10/01,12:30,0.175,0.156,0.254,0.242,0.243,0.136,0.082,�k��,2.5,��
2020/10/01,12:40,0.174,0.157,0.253,0.239,0.241,0.136,0.082,�k��,2.2,��
2020/10/01,12:50,0.177,0.156,0.252,0.241,0.242,0.137,0.082,�k��,2.2,��
2020/10/01,13:00,0.175,0.157,0.254,0.241,0.244,0.136,0.082,�k��,2.2,��
2020/10/01,13:10,0.174,0.156,0.252,0.241,0.241,0.137,0.082,�k��,1.4,��
2020/10/01,13:20,0.177,0.157,0.253,0.242,0.244,0.138,0.082,���k��,1.0,��
2020/10/01,13:30,0.174,0.157,0.253,0.239,0.244,0.136,0.082,���k��,1.0,��
2020/10/01,13:40,0.175,0.155,0.251,0.240,0.241,0.137,0.082,�k��,2.5,��
2020/10/01,13:50,0.176,0.157,0.254,0.241,0.243,0.138,0.083,�k��,1.6,��
2020/10/01,14:00,0.174,0.157,0.253,0.239,0.243,0.136,0.082,�k��,2.4,��
2020/10/01,14:10,0.174,0.156,0.252,0.241,0.241,0.137,0.081,���k��,1.3,��
2020/10/01,14:20,0.175,0.157,0.254,0.240,0.244,0.138,0.083,�k��,1.2,��
2020/10/01,14:30,0.174,0.156,0.253,0.240,0.242,0.136,0.083,�k�k��,2.5,��
2020/10/01,14:40,0.175,0.157,0.253,0.243,0.240,0.136,0.082,�k�k��,1.4,��
2020/10/01,14:50,0.175,0.157,0.254,0.240,0.243,0.137,0.082,�k,2.0,��
2020/10/01,15:00,0.174,0.156,0.252,0.240,0.242,0.136,0.082,�k,1.7,��
2020/10/01,15:10,0.177,0.157,0.255,0.242,0.241,0.137,0.083,�k�k��,1.8,��
2020/10/01,15:20,0.175,0.157,0.253,0.240,0.243,0.137,0.083,�k��,1.2,��
2020/10/01,15:30,0.176,0.157,0.253,0.242,0.243,0.136,0.082,�k,1.6,��
2020/10/01,15:40,0.176,0.158,0.254,0.243,0.241,0.137,0.083,�k�k��,1.5,��
2020/10/01,15:50,0.174,0.156,0.251,0.240,0.244,0.137,0.082,�k�k��,2.0,��
2020/10/01,16:00,0.175,0.158,0.254,0.242,0.243,0.136,0.082,�k��,2.3,��
2020/10/01,16:10,0.175,0.156,0.253,0.241,0.241,0.138,0.083,�k�k��,3.4,��
2020/10/01,16:20,0.176,0.158,0.252,0.240,0.245,0.137,0.082,�k��,2.0,��
2020/10/01,16:30,0.177,0.158,0.254,0.242,0.241,0.137,0.083,���k��,1.6,��
2020/10/01,16:40,0.174,0.156,0.251,0.240,0.243,0.137,0.083,�k�k��,1.5,��
2020/10/01,16:50,0.176,0.158,0.255,0.242,0.244,0.136,0.082,�k�k��,2.6,��
2020/10/01,17:00,0.175,0.157,0.253,0.240,0.241,0.136,0.083,�k,2.6,��
2020/10/01,17:10,0.176,0.157,0.253,0.241,0.244,0.138,0.082,�k��,2.7,��
2020/10/01,17:20,0.177,0.157,0.255,0.241,0.243,0.136,0.083,�k��,2.9,��
2020/10/01,17:30,0.175,0.158,0.254,0.240,0.242,0.136,0.082,�k��,3.0,��
2020/10/01,17:40,0.176,0.156,0.256,0.243,0.243,0.136,0.082,�k��,2.2,��
2020/10/01,17:50,0.175,0.157,0.253,0.241,0.242,0.137,0.082,�k�k��,2.5,��
2020/10/01,18:00,0.177,0.157,0.254,0.241,0.243,0.136,0.082,�k�k��,3.3,��
2020/10/01,18:10,0.175,0.157,0.254,0.241,0.241,0.137,0.082,�k��,3.1,��
2020/10/01,18:20,0.176,0.158,0.254,0.241,0.244,0.137,0.082,�k�k��,2.5,��
2020/10/01,18:30,0.176,0.157,0.253,0.242,0.242,0.137,0.083,�k,1.7,��
2020/10/01,18:40,0.175,0.156,0.254,0.239,0.240,0.137,0.082,�k,2.0,��
2020/10/01,18:50,0.176,0.156,0.254,0.242,0.244,0.138,0.082,�k,2.7,��
2020/10/01,19:00,0.175,0.158,0.252,0.239,0.242,0.137,0.082,�k,3.1,��
2020/10/01,19:10,0.176,0.156,0.254,0.241,0.244,0.137,0.082,�k�k��,2.7,��
2020/10/01,19:20,0.175,0.158,0.253,0.241,0.242,0.137,0.083,�k�k��,2.2,��
2020/10/01,19:30,0.176,0.158,0.255,0.242,0.243,0.137,0.083,�k�k��,1.3,��
2020/10/01,19:40,0.175,0.158,0.253,0.241,0.243,0.136,0.082,�k��,2.3,��
2020/10/01,19:50,0.177,0.157,0.255,0.241,0.244,0.137,0.082,�k��,2.1,��
2020/10/01,20:00,0.176,0.157,0.253,0.240,0.243,0.137,0.083,�k�k��,2.0,��
2020/10/01,20:10,0.176,0.156,0.253,0.243,0.243,0.137,0.082,�k�k��,1.1,��
2020/10/01,20:20,0.176,0.158,0.253,0.241,0.243,0.137,0.083,�k��,0.9,��
2020/10/01,20:30,0.175,0.158,0.255,0.242,0.245,0.137,0.082,���k��,1.1,��
2020/10/01,20:40,0.176,0.157,0.253,0.241,0.243,0.137,0.083,�k�k��,1.0,��
2020/10/01,20:50,0.177,0.157,0.254,0.242,0.244,0.137,0.083,-,CALM,��
2020/10/01,21:00,0.175,0.157,0.254,0.240,0.242,0.138,0.083,���k��,0.7,��
2020/10/01,21:10,0.176,0.158,0.254,0.243,0.244,0.137,0.083,-,CALM,��
2020/10/01,21:20,0.175,0.156,0.255,0.241,0.243,0.137,0.083,-,CALM,��
2020/10/01,21:30,0.177,0.158,0.254,0.241,0.243,0.137,0.083,-,CALM,��
2020/10/01,21:40,0.176,0.158,0.254,0.241,0.243,0.138,0.083,-,CALM,��
2020/10/01,21:50,0.176,0.158,0.254,0.242,0.246,0.138,0.083,-,CALM,��
2020/10/01,22:00,0.175,0.157,0.255,0.242,0.244,0.137,0.084,�k��,0.7,��
2020/10/01,22:10,0.176,0.157,0.254,0.242,0.245,0.137,0.083,-,CALM,��
2020/10/01,22:20,0.176,0.157,0.256,0.243,0.243,0.138,0.083,-,CALM,��
2020/10/01,22:30,0.177,0.157,0.253,0.242,0.244,0.138,0.083,�k,0.6,��
2020/10/01,22:40,0.176,0.159,0.256,0.243,0.243,0.137,0.083,�k�k��,0.7,��
2020/10/01,22:50,0.178,0.159,0.255,0.242,0.244,0.138,0.083,�k,0.7,��
2020/10/01,23:00,0.175,0.159,0.255,0.244,0.243,0.138,0.083,�k�k��,1.0,��
2020/10/01,23:10,0.176,0.158,0.255,0.241,0.245,0.138,0.083,�k�k��,0.9,��
2020/10/01,23:20,0.176,0.158,0.254,0.242,0.244,0.138,0.084,�k��,1.1,��
2020/10/01,23:30,0.177,0.158,0.254,0.242,0.245,0.138,0.084,�k��,0.8,��
2020/10/01,23:40,0.176,0.158,0.255,0.242,0.244,0.138,0.084,�k�k��,2.0,��
2020/10/01,23:50,0.177,0.158,0.256,0.242,0.244,0.138,0.083,�k�k��,2.3,��
